| time (UTC) | temp C | wind direction | speed KPH | gust KPH | rain 1hr cm | rain 24hr cm | rain mn cm | humidity % | barometer mb |
| 20260504174522 | 20 | 360 | 33.8 | 46.7 | 0.00 | 0.00 | 0.00 | 37 | 1002.0 |
| 20260504173022 | 20 | 360 | 33.8 | 51.5 | 0.00 | 0.00 | 0.00 | 37 | 1001.8 |
| 20260504171521 | 20 | 360 | 32.2 | 46.7 | 0.00 | 0.00 | 0.00 | 38 | 1001.6 |
| 20260504081526 | 10 | 360 | 0.0 | 6.4 | 0.00 | 0.00 | 0.00 | 59 | 1002.7 |
| 20260504044554 | 12 | 360 | 4.8 | 8.0 | 0.00 | 0.00 | 0.00 | 54 | 1004.3 |
| 20260504043111 | 13 | 360 | 8.0 | 9.7 | 0.00 | 0.00 | 0.00 | 51 | 1004.6 |
| 20260504041552 | 13 | 360 | 6.4 | 16.1 | 0.00 | 0.00 | 0.00 | 50 | 1004.7 |
| 20260504040052 | 13 | 360 | 4.8 | 17.7 | 0.00 | 0.00 | 0.00 | 53 | 1005.0 |
| 20260504034553 | 12 | 360 | 1.6 | 8.0 | 0.00 | 0.00 | 0.00 | 53 | 1005.2 |
| 20260504033101 | 12 | 360 | 6.4 | 8.0 | 0.00 | 0.00 | 0.00 | 51 | 1005.6 |
| 20260504031555 | 13 | 360 | 0.0 | 6.4 | 0.00 | 0.00 | 0.00 | 45 | 1004.9 |
| 20260504024550 | 15 | 360 | 1.6 | 4.8 | 0.00 | 0.00 | 0.00 | 41 | 1004.2 |
| 20260504023049 | 17 | 360 | 4.8 | 8.0 | 0.00 | 0.00 | 0.00 | 37 | 1004.1 |
| 20260504021550 | 18 | 360 | 3.2 | 4.8 | 0.00 | 0.00 | 0.00 | 34 | 1003.8 |
| 20260504020053 | 20 | 360 | 1.6 | 6.4 | 0.00 | 0.00 | 0.00 | 31 | 1003.5 |
| 20260504014547 | 21 | 360 | 4.8 | 8.0 | 0.00 | 0.00 | 0.00 | 29 | 1003.4 |
| 20260504013052 | 21 | 360 | 4.8 | 8.0 | 0.00 | 0.00 | 0.00 | 28 | 1003.4 |
| 20260504011546 | 22 | 360 | 4.8 | 9.7 | 0.00 | 0.00 | 0.00 | 27 | 1003.5 |
| 20260504010055 | 22 | 360 | 6.4 | 12.9 | 0.00 | 0.00 | 0.00 | 26 | 1003.5 |
| 20260504004546 | 23 | 360 | 6.4 | 16.1 | 0.00 | 0.00 | 0.00 | 26 | 1003.7 |
| 20260504003043 | 23 | 360 | 6.4 | 12.9 | 0.00 | 0.00 | 0.00 | 25 | 1004.0 |
| 20260504001541 | 23 | 360 | 6.4 | 12.9 | 0.00 | 0.00 | 0.00 | 25 | 1004.1 |
| 20260504000038 | 23 | 360 | 8.0 | 16.1 | 0.00 | 0.00 | 0.00 | 25 | 1004.3 |
| 20260503234540 | 23 | 360 | 4.8 | 8.0 | 0.00 | 0.00 | 0.00 | 25 | 1004.5 |
| 20260503233036 | 23 | 360 | 1.6 | 17.7 | 0.00 | 0.00 | 0.00 | 24 | 1004.7 |
| 20260503231533 | 23 | 360 | 1.6 | 14.5 | 0.00 | 0.00 | 0.00 | 24 | 1004.8 |
| 20260503230034 | 23 | 360 | 9.7 | 14.5 | 0.00 | 0.00 | 0.00 | 25 | 1004.9 |
| 20260503224530 | 23 | 360 | 6.4 | 12.9 | 0.00 | 0.00 | 0.00 | 24 | 1005.0 |
| 20260503223028 | 24 | 121 | 9.7 | 14.5 | 0.00 | 0.00 | 0.00 | 23 | 1005.2 |
| 20260503221531 | 25 | 109 | 6.4 | 14.5 | 0.00 | 0.00 | 0.00 | 22 | 1005.5 |
| 20260503220031 | 25 | 186 | 11.3 | 14.5 | 0.00 | 0.00 | 0.00 | 23 | 1005.7 |
| 20260503214529 | 24 | 215 | 4.8 | 16.1 | 0.00 | 0.00 | 0.00 | 24 | 1006.1 |
| 20260503213029 | 24 | 178 | 8.0 | 12.9 | 0.00 | 0.00 | 0.00 | 24 | 1006.4 |
| 20260503211517 | 24 | 360 | 3.2 | 17.7 | 0.00 | 0.00 | 0.00 | 23 | 1006.7 |
| 20260503210017 | 25 | 231 | 3.2 | 16.1 | 0.00 | 0.00 | 0.00 | 24 | 1006.8 |
| 20260503204518 | 25 | 193 | 9.7 | 17.7 | 0.00 | 0.00 | 0.00 | 24 | 1007.0 |
| 20260503203012 | 24 | 155 | 9.7 | 16.1 | 0.00 | 0.00 | 0.00 | 23 | 1007.4 |
| 20260503201506 | 24 | 360 | 8.0 | 25.7 | 0.00 | 0.00 | 0.00 | 24 | 1007.7 |
| 20260503200100 | 23 | 360 | 9.7 | 24.1 | 0.00 | 0.00 | 0.00 | 26 | 1007.9 |
| 20260503194619 | 22 | 360 | 1.6 | 22.5 | 0.00 | 0.00 | 0.00 | 27 | 1008.0 |
| 20260503193055 | 22 | 360 | 4.8 | 20.9 | 0.00 | 0.00 | 0.00 | 27 | 1008.0 |
| 20260503191558 | 22 | 360 | 9.7 | 25.7 | 0.00 | 0.00 | 0.00 | 28 | 1008.1 |
| 20260503190056 | 22 | 360 | 9.7 | 16.1 | 0.00 | 0.00 | 0.00 | 27 | 1008.4 |
| 20260503184547 | 21 | 360 | 14.5 | 20.9 | 0.00 | 0.00 | 0.00 | 28 | 1008.6 |
| 20260503183053 | 21 | 360 | 16.1 | 29.0 | 0.00 | 0.00 | 0.00 | 28 | 1008.8 |
| 20260503181557 | 21 | 360 | 12.9 | 19.3 | 0.00 | 0.00 | 0.00 | 29 | 1008.9 |
| 20260503180047 | 21 | 360 | 17.7 | 27.4 | 0.00 | 0.00 | 0.00 | 29 | 1009.3 |